Theta_e
334 334 334 336 337 337 338 339 340 340 341 342 342 343 345 345 346 349 353 351 347 345 347 347 349 349 347 346 346 347 348 348 351 352 352 350 348 347 347 346 346 346 348 348 348 350 351 352 351 351 352 352 351 350 351 354 353 354 353 352 353 353 351
332 333 334 336 336 336 337 339 339 339 340 341 342 342 343 345 348 349 349 349 348 346 347 350 350 349 349 348 347 347 347 348 351 355 352 352 356 350 348 348 347 346 348 348 349 351 352 351 352 351 351 352 351 351 351 353 352 352 354 354 352 352 352
329 334 335 336 335 335 336 338 339 339 340 341 343 341 342 344 347 347 347 347 347 347 348 349 351 350 349 349 348 347 348 349 349 352 352 351 354 354 351 350 349 349 349 350 350 351 352 351 351 351 352 352 352 350 351 352 353 352 354 355 354 353 352
327 333 336 337 336 336 337 338 339 339 340 342 342 341 341 344 347 346 347 347 346 347 347 348 350 350 349 349 348 348 348 349 349 350 352 353 354 353 351 351 350 349 350 350 351 352 352 351 351 351 356 351 352 351 351 352 354 353 354 354 353 353 353
328 333 336 337 337 336 336 337 337 338 339 341 343 343 342 344 346 345 344 345 346 347 348 348 349 349 349 349 349 349 349 348 348 349 352 354 356 354 351 350 349 349 350 350 350 352 351 349 349 350 351 351 351 351 351 351 353 353 353 353 352 352 352
328 333 335 336 337 337 337 337 337 337 338 340 341 341 342 343 344 344 344 346 345 346 345 345 346 348 346 347 348 349 349 349 349 350 352 354 355 354 351 350 350 348 349 348 351 348 349 348 346 347 348 350 351 351 350 351 351 353 352 352 351 351 351
327 330 333 335 337 337 337 337 337 337 338 339 340 343 342 342 342 342 343 345 347 343 343 343 344 346 347 347 347 348 348 348 349 350 352 354 355 355 353 352 352 349 349 350 349 348 347 346 346 345 345 346 349 350 349 350 350 351 351 350 350 349 349
326 328 329 332 334 337 337 337 338 338 340 339 340 341 340 341 342 342 342 343 345 343 342 342 344 346 346 348 348 347 348 348 351 352 352 353 354 355 355 353 352 351 351 350 349 349 347 346 347 347 346 345 346 348 349 348 349 350 351 350 349 348 350
326 327 328 328 329 334 338 339 339 339 339 338 338 339 339 340 340 342 343 343 342 342 341 342 343 346 347 347 347 347 347 348 349 352 352 352 353 354 355 354 352 352 351 350 350 351 349 348 347 347 346 346 346 345 348 347 348 349 349 350 350 349 349
328 328 330 332 332 332 338 340 340 339 338 338 338 338 339 339 339 341 342 344 344 342 342 342 343 346 347 348 348 348 348 347 348 349 351 351 352 353 355 355 352 352 350 350 350 349 350 349 349 348 349 349 347 345 345 346 347 347 349 350 350 349 349
328 328 329 329 330 332 337 340 340 339 338 339 339 340 339 339 339 340 340 342 344 345 347 347 348 348 348 348 348 348 349 349 349 348 349 350 351 352 354 355 354 352 351 349 349 349 348 350 350 349 349 350 351 348 346 345 345 346 346 349 351 350 349
329 328 327 327 328 330 334 337 340 341 341 341 341 341 341 340 341 341 342 343 345 346 348 348 349 348 347 347 346 346 347 348 349 349 350 350 350 351 353 355 355 353 352 351 349 349 349 349 350 351 350 351 351 352 350 349 348 347 345 347 350 350 349
329 326 327 328 328 329 330 332 337 341 343 343 343 343 343 343 343 345 344 346 345 346 347 347 347 346 346 346 345 345 346 347 347 348 350 351 352 352 353 354 355 355 353 353 351 350 350 350 350 352 352 352 352 352 352 351 349 347 345 345 345 347 349
337 328 327 327 327 327 329 330 331 334 340 345 345 345 345 345 346 346 345 345 343 344 345 345 344 344 344 345 345 345 346 347 348 348 348 350 351 352 353 353 353 354 355 354 352 351 350 350 350 351 353 353 353 353 353 351 349 346 345 345 345 346 346
326 325 325 326 327 328 329 330 331 332 335 345 347 347 347 347 345 342 340 341 341 344 343 343 342 341 342 343 344 345 347 348 349 349 349 350 350 351 351 352 352 352 353 353 352 352 351 350 350 350 351 353 354 353 352 350 349 348 346 344 344 346 346
326 325 326 326 327 329 330 332 332 332 333 335 346 349 348 347 344 342 341 340 339 341 345 343 341 341 341 342 344 346 347 348 349 349 349 349 349 350 350 351 351 352 351 351 351 351 351 351 351 351 350 350 351 352 352 350 349 353 354 352 347 346 348
326 326 327 327 326 327 330 331 332 332 333 334 340 349 349 348 345 342 340 340 339 340 343 348 345 342 343 343 345 346 347 347 347 347 348 349 350 350 350 350 351 351 350 350 351 351 351 352 350 350 351 351 351 351 352 352 351 352 341 341 348 349 346
326 326 327 328 328 328 330 332 332 332 333 335 337 346 350 348 346 342 341 342 343 342 344 348 348 346 345 346 347 347 347 347 347 347 347 348 348 348 349 349 348 347 348 348 349 350 351 350 351 351 351 351 350 350 351 351 354 341 338 339 339 351 346
327 327 328 328 329 331 330 332 333 334 334 335 338 344 351 351 348 345 345 346 348 348 348 349 348 346 346 347 346 346 346 346 346 347 347 348 348 347 347 346 346 346 347 347 349 349 348 349 350 349 350 350 349 349 350 350 352 340 338 337 337 342 351
328 329 330 330 331 331 332 332 334 336 336 337 339 344 351 354 352 350 351 351 352 351 350 350 348 346 346 346 347 347 347 347 346 346 347 347 348 347 346 345 345 346 347 348 348 347 347 348 348 349 348 349 349 349 349 349 351 339 336 335 335 336 345
328 330 331 332 332 332 333 333 335 336 337 339 342 347 351 353 355 354 353 353 352 352 351 349 348 346 346 346 347 347 347 348 348 347 348 348 347 347 346 346 346 346 346 346 346 345 346 346 346 347 347 346 346 346 346 348 342 336 334 333 333 335 345
328 330 331 334 336 336 337 337 338 339 340 344 351 352 352 352 354 353 353 353 352 351 350 349 347 347 346 347 347 348 348 348 348 349 349 349 349 348 347 347 346 346 346 347 346 346 346 346 345 345 345 345 345 345 345 346 338 335 333 332 332 335 342
329 330 331 333 337 338 339 339 339 342 350 349 350 350 351 352 353 352 351 351 350 350 349 348 347 347 347 348 348 349 349 349 349 349 348 348 348 347 348 347 346 346 347 346 346 345 344 344 344 345 345 345 345 344 345 346 341 333 330 330 330 336 341
330 331 331 332 334 338 338 339 341 343 346 347 347 348 349 349 350 348 348 348 347 348 348 348 347 348 348 348 349 349 350 350 350 348 348 346 346 347 348 347 347 346 349 347 345 344 345 344 344 343 343 343 342 343 344 345 345 333 328 327 327 338 342
329 330 331 332 332 337 336 337 342 345 344 343 338 334 336 337 336 333 332 335 345 347 347 347 347 348 348 349 349 349 350 351 350 348 347 347 347 347 346 346 346 347 348 347 345 345 344 346 344 342 341 341 342 347 346 345 345 330 325 325 324 336 343
328 330 331 332 334 340 336 337 338 340 341 338 336 336 338 338 336 336 335 337 338 344 346 347 348 349 349 349 349 349 350 350 352 351 349 348 347 345 345 347 345 346 346 345 345 344 343 343 344 343 342 341 341 342 343 343 344 340 322 322 322 329 344
328 331 330 332 334 346 335 334 335 338 338 335 335 336 336 337 337 336 337 338 338 341 346 348 348 348 348 349 348 349 349 349 350 350 350 349 347 347 348 348 346 344 344 344 343 340 341 341 341 341 341 341 342 342 343 343 342 343 320 319 320 325 339
326 327 327 336 340 342 335 333 334 336 337 334 335 336 336 336 336 336 336 337 338 341 345 346 347 348 348 348 348 348 349 349 349 350 350 349 348 347 347 346 347 346 345 343 342 341 340 340 341 338 338 339 342 344 343 345 347 341 326 320 318 320 328
322 322 323 326 328 334 338 332 333 336 337 335 335 335 335 334 335 335 336 334 338 342 343 342 345 347 347 347 347 348 348 348 349 350 349 349 349 348 346 345 343 342 346 343 341 340 339 338 338 338 338 338 339 342 344 345 346 345 338 323 317 317 320
320 322 323 325 327 330 338 332 333 335 337 335 335 334 334 334 334 336 336 335 338 339 341 342 343 346 347 348 348 347 347 347 349 349 349 349 349 348 346 344 344 343 344 342 341 338 338 337 338 338 337 336 336 339 342 344 344 345 342 332 318 316 316
320 320 321 322 323 328 331 330 332 333 335 335 336 336 335 334 334 336 337 338 340 339 340 341 341 341 345 347 347 346 345 345 345 346 347 348 349 347 345 343 342 342 342 342 340 337 336 335 337 336 335 335 336 337 339 341 342 343 343 335 326 317 316
317 318 319 320 320 322 327 329 332 331 334 334 335 334 336 333 333 333 335 338 339 339 339 339 339 339 341 342 343 346 346 346 343 340 340 342 346 348 345 345 343 343 340 340 340 340 338 336 334 335 335 334 334 335 337 339 339 341 342 337 334 328 321
316 316 316 317 319 324 325 327 326 328 332 334 335 334 335 333 334 334 336 337 339 339 338 337 337 339 339 338 338 340 341 342 335 333 333 333 336 342 346 344 344 343 341 340 340 340 339 338 338 337 336 336 335 334 336 336 337 338 340 341 336 334 333
315 315 317 317 318 324 323 322 322 324 329 332 335 336 336 335 335 336 337 338 339 339 338 337 336 337 336 337 338 338 341 337 339 336 332 333 334 338 343 345 345 344 343 341 341 339 339 340 339 338 337 336 336 334 333 335 336 337 338 341 340 337 334
315 315 316 316 317 323 319 320 322 324 328 331 333 336 337 337 337 337 337 338 336 337 338 338 338 337 336 337 339 337 338 336 336 335 334 333 333 334 336 343 345 344 344 345 344 344 343 341 340 341 340 339 337 335 334 335 336 338 331 341 331 338 337
315 315 316 317 319 319 319 322 321 321 324 327 329 332 337 338 339 338 339 338 336 337 336 337 337 333 333 334 333 333 333 334 335 335 335 334 334 334 332 327 316 321 341 344 335 323 314 319 340 341 341 340 340 340 339 338 339 330 318 315 315 316 319
315 315 316 318 318 318 318 319 323 321 321 323 327 330 333 335 337 339 339 339 337 337 336 337 335 332 332 334 333 333 334 335 335 335 335 335 335 334 334 331 322 304 302 316 327 312 301 299 302 306 314 331 340 331 319 320 314 308 307 308 309 309 310
317 317 319 320 319 319 319 319 320 319 320 320 324 326 327 328 330 334 339 338 337 338 336 337 334 331 330 332 334 336 337 335 336 336 335 335 335 334 335 335 334 333 311 301 305 305 301 301 302 301 302 306 312 333 333 317 308 306 304 305 306 306 306
Wind_Speed
4 4 3 3 6 8 9 9 8 8 7 5 5 6 6 6 6 7 9 11 10 8 8 10 11 11 12 10 9 8 7 7 5 4 4 6 6 8 8 8 9 8 8 8 8 9 8 9 10 10 9 9 9 7 7 7 7 8 7 6 6 6 7
6 5 5 4 5 5 5 6 6 5 4 4 5 7 6 7 8 9 10 13 14 14 12 11 11 10 11 11 10 8 8 7 5 2 2 3 5 6 7 8 8 9 8 8 8 7 8 9 9 8 9 9 9 7 7 7 8 8 7 7 7 6 7
5 6 6 5 6 6 6 5 5 5 4 5 6 7 8 8 8 10 10 11 12 12 11 10 9 9 8 8 8 9 8 7 6 5 5 4 4 6 6 6 7 8 9 8 8 8 7 8 8 8 9 9 9 8 6 7 8 8 7 7 7 7 7
5 6 7 7 6 6 7 7 6 5 3 6 7 8 7 8 7 8 9 10 10 9 11 10 9 7 6 7 8 7 7 7 7 6 4 4 4 3 4 5 4 5 6 8 8 8 7 8 9 8 9 9 9 9 8 8 8 8 8 7 7 7 7
2 3 4 5 6 5 6 6 7 7 4 5 6 6 6 5 6 6 5 4 5 8 8 9 8 7 6 6 5 5 6 7 6 5 4 3 3 3 4 5 5 5 6 5 4 5 5 6 8 8 8 8 9 9 9 9 9 8 8 8 7 7 7
5 5 6 6 6 6 7 8 8 8 7 7 7 7 6 6 5 6 5 5 5 4 5 5 5 6 6 6 6 5 5 5 5 5 5 5 4 5 5 5 5 5 4 6 4 5 5 5 5 6 7 7 9 10 10 10 9 9 8 8 8 8 7
5 6 6 6 7 7 8 9 8 6 5 6 6 5 5 6 7 6 5 6 6 7 7 7 6 6 6 5 6 5 6 6 6 6 6 5 5 5 5 5 5 5 5 3 5 4 5 5 5 5 5 6 7 9 9 9 10 9 8 8 8 8 8
6 6 6 6 7 8 8 7 7 3 5 4 6 7 7 7 7 8 8 8 7 6 6 7 7 7 6 5 5 6 6 6 4 5 5 5 5 6 5 5 5 5 4 6 5 5 5 5 5 5 6 5 5 7 9 9 10 10 9 9 9 9 7
4 5 6 7 7 8 8 6 5 5 6 7 7 7 7 7 8 8 8 8 7 8 8 8 7 6 6 6 5 6 5 5 5 5 5 6 6 6 6 5 5 4 6 6 5 5 6 6 6 5 5 6 6 5 8 9 10 10 10 10 10 10 10
4 4 4 5 5 4 4 3 2 1 2 4 5 6 8 7 6 6 6 7 6 7 7 6 6 6 6 6 6 6 6 6 6 6 6 7 7 7 6 6 5 5 6 6 5 6 6 6 6 6 6 6 5 6 7 8 9 10 11 11 11 11 11
3 3 3 3 4 2 2 3 3 1 3 5 6 5 5 5 6 6 6 6 6 4 4 5 5 6 6 6 7 6 6 6 6 7 8 8 7 8 8 7 7 6 7 7 7 7 6 6 6 7 7 8 7 6 6 7 8 10 11 11 11 12 12
4 4 4 4 3 1 3 4 4 1 4 6 6 5 5 5 4 4 4 6 5 6 5 6 6 6 6 6 6 6 6 6 6 7 8 9 8 9 9 8 7 7 7 7 8 7 7 8 7 8 9 9 9 8 7 7 5 5 7 10 10 11 12
5 5 4 2 0 0 1 3 4 5 5 7 7 6 5 5 4 4 4 4 4 4 5 7 7 6 6 6 6 5 6 7 8 8 7 8 8 7 7 8 8 7 7 7 8 8 8 8 8 7 7 8 8 9 9 8 7 6 6 6 7 9 10
3 1 1 1 1 3 4 4 4 5 6 7 8 7 5 4 5 5 6 4 3 3 3 4 5 6 6 6 6 7 7 8 7 8 8 7 7 7 8 8 8 8 7 7 8 8 9 8 8 8 7 8 8 9 9 9 8 8 7 7 7 6 6
4 4 3 3 5 5 4 5 6 6 6 7 7 7 7 5 4 4 3 4 3 3 3 3 3 3 4 5 6 8 8 7 6 7 7 8 8 8 8 8 8 8 7 7 8 7 8 8 8 8 8 8 8 8 8 8 9 8 8 8 7 8 9
5 6 6 7 8 7 6 6 5 6 5 4 6 7 6 6 5 5 5 5 4 4 4 5 5 5 5 6 7 6 6 7 6 7 8 8 8 8 8 8 8 6 6 6 7 7 7 7 7 8 9 9 9 8 8 8 8 10 16 13 10 9 7
5 7 7 6 4 7 7 6 5 4 4 5 5 7 7 7 6 4 3 3 3 4 4 5 6 7 7 8 7 6 5 5 6 6 7 7 7 7 7 7 6 5 5 5 6 7 7 7 8 8 8 9 9 9 9 8 9 14 15 16 18 12 9
5 6 5 6 6 5 5 6 6 7 8 7 7 6 7 8 7 6 6 5 5 5 3 3 4 6 7 7 7 6 7 7 6 6 6 6 6 6 6 5 4 4 4 4 5 6 5 7 8 8 8 8 8 9 10 9 14 16 16 18 18 17 12
6 3 5 6 7 6 6 6 6 8 8 6 7 7 9 9 7 8 8 7 7 4 4 3 3 4 5 5 5 6 6 6 6 5 5 5 6 6 5 5 4 5 5 7 7 5 6 8 7 8 8 8 9 10 10 10 14 15 17 18 19 20 18
6 6 5 7 7 6 5 4 6 7 7 8 8 9 8 8 9 9 8 7 5 6 6 5 5 5 5 4 5 5 5 5 6 6 6 5 5 5 5 5 6 6 6 6 5 6 7 7 9 8 9 9 10 10 10 11 14 17 18 19 20 22 21
9 8 8 9 7 7 6 6 7 7 6 7 8 7 7 8 8 6 5 5 5 5 6 6 6 5 5 5 5 5 5 5 5 6 5 5 5 5 6 6 6 6 6 6 7 7 8 9 9 8 8 8 9 9 11 11 17 16 18 20 22 21 20
9 10 11 7 6 6 5 7 7 8 9 6 6 7 8 10 8 7 7 5 6 5 5 6 6 6 5 6 6 6 6 6 5 5 5 5 6 6 7 6 7 7 6 6 7 7 7 6 6 7 8 8 8 9 11 12 16 17 18 21 23 22 16
6 8 9 9 8 8 8 8 6 5 6 6 6 7 8 7 7 6 5 5 5 5 5 5 6 6 6 6 6 6 6 5 5 5 5 5 5 5 6 7 7 7 5 6 7 7 6 7 7 6 6 7 8 9 11 12 14 16 17 18 20 18 12
8 6 7 8 9 9 11 11 12 8 7 9 8 6 5 1 2 4 2 3 4 4 6 6 7 6 6 7 6 6 6 5 5 5 5 4 6 6 7 7 6 6 5 7 7 6 7 6 6 5 6 7 8 8 10 11 12 15 15 17 14 13 12
9 7 7 8 8 9 9 10 10 11 13 16 13 14 17 16 17 13 11 14 6 5 6 6 6 6 7 7 6 6 6 5 5 6 5 5 6 7 6 6 6 5 4 5 5 6 5 4 5 6 5 5 7 12 12 10 10 10 13 14 14 14 11
10 8 7 8 8 7 6 8 11 15 19 18 15 12 11 7 5 9 9 10 7 5 6 6 6 6 5 5 5 5 6 5 6 6 6 7 6 4 6 4 3 4 5 4 5 5 4 4 4 6 6 6 6 7 8 8 7 6 11 13 14 17 11
9 8 9 8 6 5 6 6 8 12 12 11 10 9 4 6 4 5 5 6 4 6 7 6 5 5 5 5 5 5 6 6 6 7 7 6 6 5 4 4 4 4 4 5 4 3 4 4 5 5 6 5 6 6 6 6 6 4 10 11 13 15 14
8 10 10 8 7 5 4 5 6 8 11 10 8 8 3 5 8 7 5 3 6 9 5 3 5 5 6 6 7 7 7 7 7 7 7 6 5 4 5 4 5 3 5 5 4 4 5 4 4 5 6 5 5 6 6 7 11 3 7 11 11 12 13
8 9 9 10 10 7 6 5 4 5 7 7 7 5 7 10 11 10 6 7 13 10 5 3 3 4 5 6 6 7 6 6 7 6 5 5 6 5 5 4 4 4 6 4 4 5 5 5 4 4 5 5 5 4 5 5 6 8 5 8 9 10 11
11 10 10 11 11 9 7 4 3 4 2 4 7 9 9 7 7 9 8 12 10 3 3 4 3 3 5 6 6 5 5 4 5 6 6 6 5 5 5 4 4 3 4 5 5 5 5 5 4 4 5 6 5 4 5 5 5 4 7 7 11 12 13
11 10 11 12 13 13 9 6 4 3 2 2 4 6 5 2 2 6 10 9 6 5 5 4 3 3 5 6 5 4 4 4 3 4 5 4 5 5 5 4 3 4 5 4 5 4 5 5 4 5 5 5 5 5 4 4 5 4 5 6 8 11 12
11 11 10 11 12 14 12 9 5 2 3 4 6 7 4 2 3 7 8 6 5 3 3 3 3 4 5 4 3 4 4 4 1 5 8 5 1 4 5 5 5 5 4 4 5 5 5 5 4 5 5 5 5 5 5 4 3 4 2 3 5 6 9
8 10 9 10 11 11 10 8 8 9 2 4 6 7 6 3 5 8 9 8 7 4 2 1 3 5 5 4 5 5 3 2 11 6 5 4 7 8 5 6 6 6 5 5 6 6 5 5 5 5 5 5 5 5 4 4 4 4 4 2 3 3 3
9 9 10 8 8 8 8 8 8 10 9 5 5 7 7 5 5 7 8 7 5 3 2 3 3 3 1 3 3 2 3 8 8 8 8 10 10 9 8 8 8 8 7 7 7 6 6 6 6 6 5 5 5 5 4 4 4 4 5 4 4 3 3
9 9 8 9 8 6 6 5 6 6 7 9 8 7 7 7 6 5 7 6 3 2 3 5 2 5 7 5 5 9 7 3 4 8 9 10 8 6 4 6 8 8 7 7 7 7 8 7 6 6 6 5 5 5 5 4 6 7 6 6 6 6 4
8 8 9 8 6 5 6 5 5 5 5 6 7 8 7 7 8 6 5 4 2 2 3 1 7 10 6 4 6 4 4 6 7 8 8 8 7 4 3 5 10 9 4 6 6 4 1 3 6 4 4 5 6 6 7 7 6 3 10 12 11 11 10
7 7 6 7 7 8 7 7 6 6 5 6 7 7 7 7 8 8 6 4 2 2 2 5 8 7 2 6 6 8 10 11 11 11 9 8 8 7 5 3 1 1 9 13 1 4 5 3 4 4 3 4 5 4 6 6 5 6 10 12 13 13 13
7 6 7 7 6 6 7 8 8 7 7 6 6 7 7 7 8 8 7 3 2 1 4 7 7 6 8 9 7 6 7 3 4 5 4 5 6 6 6 5 4 4 3 1 5 3 6 5 3 2 2 2 1 3 4 5 7 7 8 11 12 13 13
Wind_Direction
129 140 155 170 170 177 189 201 194 192 189 161 135 143 158 154 151 165 158 163 171 163 177 184 194 187 189 193 205 209 206 206 196 202 207 190 185 183 185 186 183 186 187 189 193 192 194 192 193 195 198 201 200 190 189 191 197 202 198 192 190 192 196
153 161 166 182 184 182 195 208 209 204 176 141 147 162 170 160 161 161 163 168 177 175 182 191 194 196 189 194 199 201 202 205 198 184 210 213 190 190 188 185 184 184 188 191 189 196 191 194 193 194 196 201 206 195 189 193 197 200 194 188 190 195 193
165 165 171 176 194 192 198 204 216 211 172 145 162 178 181 173 170 165 168 177 183 177 179 193 197 196 194 194 194 201 201 196 197 197 188 206 207 192 193 186 188 184 189 188 187 193 195 193 195 193 193 198 204 201 194 199 201 202 197 186 187 191 194
174 180 177 185 193 203 201 203 205 209 175 152 176 184 176 174 172 174 176 183 179 172 175 190 195 194 184 194 202 201 201 203 202 197 196 193 209 203 184 193 195 184 177 189 191 190 194 194 196 198 195 196 202 201 199 202 204 204 200 192 193 190 194
163 161 152 170 185 195 211 210 210 207 175 153 173 181 174 164 162 170 187 185 171 176 185 184 184 176 167 187 203 201 202 203 203 204 200 205 204 193 199 197 197 197 192 174 168 173 184 193 197 198 204 200 202 203 203 201 204 202 201 197 201 198 197
179 183 190 194 196 202 210 215 215 205 165 166 172 173 172 166 158 171 172 169 155 147 152 159 173 168 170 178 188 197 194 202 202 206 206 205 205 202 207 211 203 203 193 196 181 186 184 190 199 198 203 206 208 206 206 204 205 202 201 199 205 203 204
193 201 201 208 203 204 210 216 221 212 151 160 161 165 170 175 172 168 165 170 172 163 170 174 177 172 177 171 192 195 199 201 197 207 211 211 207 210 213 214 213 203 204 178 200 187 190 193 204 213 214 210 212 215 209 207 207 204 200 202 208 209 208
183 202 223 212 216 210 211 215 219 200 122 148 157 163 177 186 176 173 176 181 178 172 177 175 179 181 172 172 184 200 204 205 207 206 208 216 217 214 209 210 208 205 194 202 206 186 194 202 209 211 219 226 221 218 218 211 210 207 200 202 207 213 211
205 210 211 224 215 212 212 205 199 204 173 174 182 173 179 186 188 186 184 182 184 182 188 184 183 174 167 173 179 198 202 199 207 206 210 218 223 223 214 208 204 196 206 214 210 199 198 203 209 220 220 225 229 223 221 213 212 211 207 203 203 208 214
173 196 243 270 267 244 225 177 133 129 198 193 191 185 191 195 194 186 189 193 188 194 184 180 179 175 174 178 190 190 194 201 205 211 215 219 224 227 221 214 208 201 209 217 214 212 214 208 212 216 221 224 227 224 225 220 212 211 211 207 203 206 211
192 203 238 266 266 232 148 110 120 198 256 230 210 198 192 197 193 187 192 193 199 192 175 175 169 171 174 176 186 189 196 202 198 207 215 221 223 228 227 223 216 206 212 213 217 221 220 223 216 219 220 225 225 223 223 224 216 213 212 211 208 207 208
192 206 219 250 275 352 99 105 115 151 249 259 240 216 193 197 198 185 181 199 196 184 166 164 162 168 167 174 183 195 200 204 203 209 213 217 223 226 227 226 221 213 215 211 219 220 219 218 217 215 220 222 223 222 224 219 210 212 210 208 214 215 210
193 206 213 239 319 354 65 137 148 170 212 237 247 240 207 190 189 186 186 191 201 196 177 162 164 166 169 175 189 200 211 210 212 215 218 219 220 221 223 224 222 215 214 209 216 220 222 221 220 222 221 225 224 224 223 218 208 202 208 212 207 210 217
197 243 336 13 296 233 207 193 186 192 206 215 232 244 235 204 188 192 182 172 175 190 177 161 160 170 175 176 188 201 216 219 218 218 220 222 223 223 223 222 222 220 216 208 213 221 224 226 225 228 225 229 227 228 226 222 215 208 206 206 208 209 216
218 229 203 180 227 234 230 208 209 203 205 206 210 224 231 228 209 200 202 173 147 146 184 167 166 187 194 192 196 202 205 210 215 221 223 221 218 221 224 224 222 216 211 208 215 218 223 225 228 232 233 235 233 233 228 225 224 217 206 203 205 208 217
229 233 226 205 193 223 229 229 227 218 205 225 211 211 212 213 219 214 213 214 187 187 181 159 182 190 205 216 221 216 198 196 203 211 218 221 219 218 217 220 219 209 203 210 214 219 221 225 230 232 235 236 235 231 227 226 228 223 214 207 205 201 208
246 237 239 247 227 200 212 233 240 249 237 229 232 219 209 205 204 204 228 241 224 215 200 176 179 185 193 211 219 219 212 202 206 199 200 208 212 211 209 209 206 201 200 205 213 222 226 223 226 230 233 234 238 237 233 232 229 228 225 221 214 208 198
275 268 272 262 257 254 233 212 207 219 227 225 231 234 220 216 200 187 210 219 232 234 213 199 194 190 194 201 201 203 205 209 209 206 206 193 198 199 200 197 198 215 221 220 222 226 228 233 234 236 236 238 240 242 242 239 241 230 225 223 219 212 194
2 306 268 268 261 251 243 237 227 217 220 223 225 228 227 216 208 208 205 200 211 202 205 214 208 198 198 196 192 198 197 195 194 199 199 196 192 192 187 194 209 221 226 233 235 235 231 236 239 243 242 242 244 246 245 247 246 238 229 223 218 214 206
1 344 313 279 267 266 264 256 248 242 229 225 224 222 227 215 210 215 211 207 195 189 199 197 201 193 198 191 194 196 202 201 203 206 208 204 203 198 198 200 215 221 225 235 243 243 247 248 246 245 245 243 245 250 252 249 251 242 234 229 223 215 214
0 352 355 351 321 286 276 257 253 252 247 235 231 225 210 217 214 213 211 203 195 191 189 194 192 197 201 206 209 203 202 206 208 216 216 210 207 209 217 218 224 224 226 227 234 236 239 243 245 245 246 251 251 258 257 257 254 247 240 234 227 221 214
1 357 357 358 18 356 327 305 290 283 265 242 217 202 195 199 197 189 201 191 191 191 193 193 194 202 203 213 221 219 215 207 212 214 216 212 211 214 222 224 223 230 231 230 235 236 238 243 238 247 251 253 258 261 264 263 259 252 246 239 233 221 206
353 1 351 352 356 360 355 341 307 295 283 258 210 194 197 189 178 178 170 176 190 185 197 193 202 209 206 216 221 226 225 219 213 214 215 211 214 223 228 227 232 236 231 236 238 238 235 239 238 241 249 260 263 266 269 269 256 244 238 235 235 221 205
333 349 353 347 350 360 6 3 357 342 347 338 316 325 337 7 64 59 80 141 162 190 199 203 213 210 209 216 222 224 225 220 210 213 220 215 220 222 226 225 227 231 220 220 229 235 239 244 251 249 251 259 269 266 276 274 264 247 234 234 219 202 206
332 329 346 346 354 357 1 7 2 7 14 23 37 47 38 36 46 39 358 324 303 202 204 217 219 214 213 220 220 222 220 214 203 209 219 226 227 223 223 222 223 224 207 217 220 237 246 249 252 261 263 259 265 278 281 281 274 243 233 228 204 197 201
326 326 344 345 357 353 2 7 14 26 37 39 45 49 53 92 149 167 190 210 238 259 224 221 224 221 224 225 224 225 223 219 209 205 205 214 222 219 230 229 224 220 214 224 217 237 236 246 248 257 264 265 274 278 281 290 289 248 220 225 209 202 197
327 320 337 339 349 352 4 11 37 52 60 66 65 81 41 315 263 231 217 234 231 240 240 227 214 211 215 214 217 219 220 218 215 212 211 205 208 209 215 210 213 212 215 226 233 239 249 247 253 255 264 269 271 277 277 278 290 271 211 212 202 208 209
328 329 331 327 334 347 2 7 41 60 80 73 74 74 27 253 265 256 244 263 265 255 239 241 237 220 206 208 214 212 208 208 212 211 210 208 199 196 211 217 207 225 217 214 218 233 246 252 251 254 270 279 279 277 274 281 282 256 221 221 214 209 217
324 324 324 327 331 336 347 5 33 72 91 115 122 172 160 241 240 250 237 233 238 232 222 247 252 234 225 216 212 210 203 198 196 200 202 203 198 196 207 197 162 208 233 216 216 220 241 252 248 262 275 286 283 276 280 277 282 260 224 220 224 229 235
332 329 331 331 328 324 334 347 33 100 137 157 172 196 229 233 224 237 232 235 247 252 282 273 264 278 244 230 218 210 210 203 205 201 196 195 190 193 200 200 202 208 223 213 210 217 243 243 244 254 263 281 284 281 282 282 289 261 221 206 204 213 219
332 334 332 333 330 327 325 331 2 112 188 235 239 238 211 193 265 313 300 296 338 273 245 227 234 254 244 227 216 211 216 216 215 210 199 192 182 183 196 211 196 212 229 214 217 223 229 239 231 236 252 266 267 280 273 274 283 281 243 224 214 212 205
327 329 331 331 330 331 330 329 338 54 164 247 258 266 256 191 219 264 271 290 306 293 288 301 279 260 255 255 226 207 206 217 264 3 349 332 266 196 194 202 204 215 207 212 231 223 223 247 234 238 241 246 261 266 267 265 280 284 273 224 238 230 225
312 316 321 321 318 325 332 341 340 331 292 211 254 259 269 212 231 248 271 283 290 298 305 291 285 291 303 325 327 322 331 35 61 47 11 326 311 301 251 205 202 197 198 211 227 223 231 241 240 247 241 250 254 252 257 251 251 261 278 184 206 228 237
304 308 309 308 312 319 327 340 341 343 331 288 259 250 265 265 225 243 257 266 272 284 291 274 251 254 303 10 337 336 88 98 132 142 205 216 210 202 217 210 193 192 201 204 207 212 229 227 237 238 239 249 244 243 240 251 245 230 226 223 193 203 198
297 296 296 307 308 308 309 313 332 337 333 315 294 278 274 274 264 247 258 260 244 234 258 269 311 22 11 347 15 30 24 62 165 198 215 233 233 243 253 209 188 192 213 207 191 200 206 219 228 230 233 224 226 219 237 238 245 244 207 211 192 186 189
286 295 303 302 297 286 291 305 310 318 316 304 306 297 286 285 285 274 257 263 228 205 234 310 68 83 62 116 132 160 224 225 210 213 223 232 243 243 251 293 336 325 235 198 175 150 134 191 222 242 242 226 229 205 208 227 235 229 194 202 194 193 193
281 289 288 292 302 304 300 296 301 307 305 297 294 294 288 284 285 284 276 259 230 206 204 73 93 108 202 254 232 209 202 202 195 195 201 211 224 210 211 228 157 86 346 332 105 141 142 150 237 284 274 248 247 229 222 245 279 272 219 202 200 197 198
280 273 277 283 278 281 292 301 307 304 297 293 294 297 301 301 298 295 287 288 262 198 92 117 140 178 217 242 256 252 254 327 338 301 270 244 230 220 206 186 197 226 176 171 296 181 161 172 180 208 250 267 265 256 246 227 233 246 231 214 200 200 199